Location: ??????
(55.6130°N, 37.7882°E)
Time: 03:41:33
(UTC+00:00)

Cosmos 1633 Rocket - Pass Details

Date: 14 April 2024
Orbit: 604 x 619 km, 82.5° (Epoch: 23 May)

Event Time Altitude Azimuth Distance (km) Brightness Sun altitude
Rises 00:29:21 0° 351° (N) 2,877 7.0 -14.9°
Reaches altitude 10° 00:31:40 10° 357° (N) 1,969 6.2 -14.7°
Maximum altitude 00:35:51 46° 71° (ENE) 822 4.1 -14.2°
Drops below altitude 10° 00:40:02 10° 146° (SE) 1,959 5.6 -13.8°
Sets 00:42:19 0° 152° (SSE) 2,860 6.3 -13.5°
